Location: Pinon Hills
(34.4429°N, 117.6403°W)
Time: 08:46:26
(UTC-07:00)

ISS - Visible Passes

Search period start: 18 October 2019 00:00
Search period end: 28 October 2019 00:00
Orbit: 411 x 421 km, 51.6° (Epoch: 19 October)

Date Brightness Start Highest point End Pass type
(mag) Time Alt. Az. Time Alt. Az. Time Alt. Az.
21 Oct -0.8 06:18:40 10° S 06:21:03 18° SE 06:23:26 10° E visible
23 Oct -3.3 06:17:06 10° SW 06:20:25 63° SE 06:23:44 10° NE visible
24 Oct -2.0 05:29:57 17° S 05:31:55 31° SE 05:34:56 10° ENE visible
25 Oct -0.7 04:44:23 15° ESE 04:44:23 15° ESE 04:45:41 10° E visible
25 Oct -3.1 06:17:20 14° WSW 06:19:58 38° NW 06:23:08 10° NNE visible
26 Oct -3.8 05:31:32 69° N 05:31:32 69° N 05:34:41 10° NE visible
27 Oct -0.6 04:45:30 14° ENE 04:45:30 14° ENE 04:46:03 10° NE visible
27 Oct -1.8 06:18:25 14° WNW 06:19:42 16° NNW 06:21:53 10° N visible
